Chalkyitsik, AK

8:29 PM AKDT on September 25, 2016 (GMT -0800)
Fort Yukon

Weather History for PFYU - October, 2011

Change the Weather History Date:

Monday, October 10, 2011

  Actual Average Record
Temperature  
Mean Temperature 28 °F -  
Max Temperature 33 °F 26 °F 48 °F (2006)
Min Temperature 24 °F 15 °F 3 °F (2014)
Degree Days  
Heating Degree Days 36    
Moisture  
Dew Point 22 °F    
Average Humidity 76    
Maximum Humidity 86    
Minimum Humidity 60    
Precipitation  
Precipitation 0.00 in - - ()
Sea Level Pressure  
Sea Level Pressure 29.75 in    
Wind  
Wind Speed 5 mph (NE)    
Max Wind Speed 13 mph    
Max Gust Speed 16 mph    
Visibility 10 miles    
Events      
Averages and records for this station are not official NWS values.
T = Trace of Precipitation, MM = Missing Value Source: NWS Daily Summary

Daily Weather History Graph

Daily Weather History Graph

Search for Another Location

Airport or City:

Trip Planner

Search our weather history database for the weather conditions in past years. The results will help you decide how hot, cold, wet, or windy it might be!

Date:

Astronomy

Oct. 10, 2011 Rise Set
Actual Time 8:22 AM AKDT 6:32 PM AKDT
Civil Twilight 7:29 AM AKDT 7:25 PM AKDT
Nautical Twilight 6:28 AM AKDT 8:25 PM AKDT
Astronomical Twilight 5:24 AM AKDT 9:28 PM AKDT
Moon 5:35 PM AKDT (10/10) 7:06 AM AKDT (10/10)
Length of Visible Light 11h 55m
Length of Day
10h 10m
Waxing Gibbous, 99% of the Moon is Illuminated
Oct 10
Waxing Gibbous
Oct 11
Full
Oct 19
Last Quarter
Oct 26
New
Nov 2
First Quarter

Hourly Weather History & Observations

Time (AKDT) Temp. Windchill Dew Point Humidity Pressure Visibility Wind Dir Wind Speed Gust Speed Precip Events Conditions
12:16 AM 26.6 °F 22.6 °F 21.2 °F 80% 29.73 in 10.0 mi NE 3.5 mph - N/A   Mostly Cloudy
12:36 AM 26.6 °F 22.6 °F 21.2 °F 80% 29.73 in 10.0 mi NE 3.5 mph - N/A   Overcast
12:56 AM 28.4 °F 23.3 °F 21.2 °F 74% 29.73 in 10.0 mi NE 4.6 mph - N/A   Overcast
1:16 AM 28.4 °F 23.3 °F 23.0 °F 80% 29.73 in 10.0 mi NE 4.6 mph - N/A   Overcast
1:36 AM 28.4 °F 22.2 °F 24.8 °F 86% 29.74 in 10.0 mi NE 5.8 mph - N/A   Overcast
1:56 AM 28.4 °F 23.3 °F 24.8 °F 86% 29.74 in 8.0 mi NE 4.6 mph - N/A   Overcast
2:16 AM 28.4 °F 23.3 °F 24.8 °F 86% 29.74 in 6.0 mi NE 4.6 mph - N/A   Overcast
2:36 AM 28.4 °F 22.2 °F 24.8 °F 86% 29.74 in 10.0 mi NE 5.8 mph - N/A   Overcast
2:56 AM 28.4 °F 23.3 °F 24.8 °F 86% 29.74 in 10.0 mi NE 4.6 mph - N/A   Overcast
3:16 AM 28.4 °F 23.3 °F 24.8 °F 86% 29.74 in 10.0 mi NNE 4.6 mph - N/A   Mostly Cloudy
3:36 AM 28.4 °F 23.3 °F 23.0 °F 80% 29.74 in 10.0 mi NNE 4.6 mph - N/A   Overcast
3:56 AM 28.4 °F 23.3 °F 23.0 °F 80% 29.74 in 10.0 mi NNE 4.6 mph - N/A   Overcast
4:16 AM 28.4 °F 23.3 °F 21.2 °F 74% 29.74 in 10.0 mi NNE 4.6 mph - N/A   Mostly Cloudy
4:36 AM 26.6 °F 21.2 °F 21.2 °F 80% 29.74 in 10.0 mi NE 4.6 mph - N/A   Partly Cloudy
4:56 AM 26.6 °F 21.2 °F 21.2 °F 80% 29.74 in 10.0 mi NNE 4.6 mph - N/A   Clear
5:16 AM 26.6 °F 21.2 °F 21.2 °F 80% 29.74 in 10.0 mi NNE 4.6 mph - N/A   Clear
5:36 AM 24.8 °F 20.5 °F 19.4 °F 80% 29.74 in 10.0 mi NE 3.5 mph - N/A   Clear
5:56 AM 26.6 °F 21.2 °F 21.2 °F 80% 29.74 in 10.0 mi NNE 4.6 mph - N/A   Clear
6:16 AM 26.6 °F 21.2 °F 19.4 °F 74% 29.74 in 10.0 mi NNE 4.6 mph - N/A   Clear
6:36 AM 24.8 °F 20.5 °F 19.4 °F 80% 29.74 in 10.0 mi NE 3.5 mph - N/A   Clear
6:56 AM 24.8 °F 19.1 °F 19.4 °F 80% 29.74 in 10.0 mi NNE 4.6 mph - N/A   Partly Cloudy
7:16 AM 24.8 °F 17.9 °F 19.4 °F 80% 29.74 in 10.0 mi NNE 5.8 mph - N/A   Clear
7:36 AM 24.8 °F 19.1 °F 19.4 °F 80% 29.75 in 10.0 mi NNE 4.6 mph - N/A   Clear
7:56 AM 24.8 °F 17.9 °F 19.4 °F 80% 29.75 in 10.0 mi NNE 5.8 mph - N/A   Clear
8:16 AM 24.8 °F 19.1 °F 19.4 °F 80% 29.75 in 10.0 mi NNE 4.6 mph - N/A   Clear
8:36 AM 24.8 °F 17.9 °F 19.4 °F 80% 29.75 in 10.0 mi NNE 5.8 mph - N/A   Clear
8:56 AM 24.8 °F 19.1 °F 19.4 °F 80% 29.76 in 10.0 mi NNE 4.6 mph - N/A   Clear
9:16 AM 24.8 °F 17.9 °F 19.4 °F 80% 29.76 in 10.0 mi NNE 5.8 mph - N/A   Clear
9:36 AM 24.8 °F 17.9 °F 19.4 °F 80% 29.76 in 10.0 mi NE 5.8 mph - N/A   Clear
9:56 AM 24.8 °F 16.9 °F 19.4 °F 80% 29.76 in 10.0 mi NE 6.9 mph - N/A   Clear
10:16 AM 24.8 °F 16.9 °F 19.4 °F 80% 29.76 in 10.0 mi NE 6.9 mph - N/A   Scattered Clouds
10:36 AM 24.8 °F 16.9 °F 19.4 °F 80% 29.76 in 10.0 mi NE 6.9 mph - N/A   Scattered Clouds
10:56 AM 26.6 °F 19.1 °F 19.4 °F 74% 29.76 in 10.0 mi NE 6.9 mph - N/A   Scattered Clouds
11:16 AM 26.6 °F 18.2 °F 21.2 °F 80% 29.76 in 10.0 mi NE 8.1 mph - N/A   Overcast
11:36 AM 28.4 °F 21.2 °F 21.2 °F 74% 29.76 in 10.0 mi NE 6.9 mph - N/A   Mostly Cloudy
11:56 AM 28.4 °F 19.7 °F 23.0 °F 80% 29.76 in 10.0 mi ENE 9.2 mph - N/A   Partly Cloudy
12:16 PM 30.2 °F 23.4 °F 23.0 °F 75% 29.76 in 10.0 mi NE 6.9 mph - N/A   Clear
12:36 PM 30.2 °F 21.3 °F 23.0 °F 75% 29.76 in 10.0 mi ENE 10.4 mph - N/A   Scattered Clouds
12:56 PM 30.2 °F 22.6 °F 23.0 °F 75% 29.76 in 10.0 mi ENE 8.1 mph - N/A   Overcast
1:16 PM 30.2 °F 23.4 °F 23.0 °F 75% 29.76 in 10.0 mi ENE 6.9 mph - N/A   Overcast
1:36 PM 32.0 °F 24.8 °F 24.8 °F 75% 29.76 in 10.0 mi NE 8.1 mph - N/A   Scattered Clouds
1:56 PM 33.8 °F 27.0 °F 23.0 °F 65% 29.75 in 10.0 mi NE 8.1 mph - N/A   Scattered Clouds
2:16 PM 33.8 °F 27.0 °F 23.0 °F 65% 29.75 in 10.0 mi ENE 8.1 mph - N/A   Scattered Clouds
2:36 PM 33.8 °F 26.4 °F 23.0 °F 65% 29.76 in 10.0 mi NE 9.2 mph - N/A   Scattered Clouds
2:56 PM 33.8 °F 26.4 °F 23.0 °F 65% 29.75 in 10.0 mi NE 9.2 mph - N/A   Scattered Clouds
3:16 PM 33.8 °F 24.8 °F 23.0 °F 65% 29.75 in 10.0 mi NE 12.7 mph - N/A   Partly Cloudy
3:36 PM 33.8 °F 26.4 °F 23.0 °F 65% 29.75 in 10.0 mi ENE 9.2 mph - N/A   Scattered Clouds
3:56 PM 33.8 °F 27.7 °F 21.2 °F 60% 29.76 in 10.0 mi ENE 6.9 mph - N/A   Scattered Clouds
4:16 PM 33.8 °F 26.4 °F 21.2 °F 60% 29.76 in 10.0 mi ENE 9.2 mph 16.1 mph N/A   Scattered Clouds
4:36 PM 33.8 °F 27.7 °F 23.0 °F 65% 29.76 in 10.0 mi ENE 6.9 mph - N/A   Scattered Clouds
4:56 PM 33.8 °F 27.7 °F 21.2 °F 60% 29.76 in 10.0 mi ENE 6.9 mph - N/A   Scattered Clouds
5:16 PM 32.0 °F 24.8 °F 23.0 °F 69% 29.75 in 10.0 mi ENE 8.1 mph - N/A   Scattered Clouds
5:36 PM 33.8 °F 26.4 °F 23.0 °F 65% 29.75 in 10.0 mi ENE 9.2 mph - N/A   Scattered Clouds
5:56 PM 32.0 °F 27.5 °F 23.0 °F 69% 29.75 in 10.0 mi NE 4.6 mph - N/A   Scattered Clouds
6:16 PM 30.2 °F 26.7 °F 23.0 °F 75% 29.75 in 10.0 mi NE 3.5 mph - N/A   Scattered Clouds
6:36 PM 30.2 °F - 21.2 °F 69% 29.75 in 10.0 mi Calm Calm - N/A   Scattered Clouds
6:56 PM 28.4 °F - 21.2 °F 74% 29.75 in 10.0 mi Calm Calm - N/A   Scattered Clouds
7:16 PM 28.4 °F 24.6 °F 21.2 °F 74% 29.75 in 10.0 mi NE 3.5 mph - N/A   Scattered Clouds
7:36 PM 28.4 °F 24.6 °F 21.2 °F 74% 29.75 in 10.0 mi NE 3.5 mph - N/A   Scattered Clouds
7:56 PM 28.4 °F 23.3 °F 21.2 °F 74% 29.75 in 10.0 mi NE 4.6 mph - N/A   Scattered Clouds
8:16 PM 28.4 °F 23.3 °F 21.2 °F 74% 29.75 in 10.0 mi NNE 4.6 mph - N/A   Mostly Cloudy
8:36 PM 30.2 °F 26.7 °F 23.0 °F 75% 29.75 in 10.0 mi NE 3.5 mph - N/A   Overcast
8:56 PM 28.4 °F 23.3 °F 21.2 °F 74% 29.75 in 10.0 mi NE 4.6 mph - N/A   Mostly Cloudy
9:16 PM 28.4 °F 22.2 °F 21.2 °F 74% 29.75 in 10.0 mi NNE 5.8 mph - N/A   Scattered Clouds
9:36 PM 28.4 °F 22.2 °F 21.2 °F 74% 29.75 in 10.0 mi NNE 5.8 mph - N/A   Mostly Cloudy
9:56 PM 28.4 °F 22.2 °F 21.2 °F 74% 29.75 in 10.0 mi NE 5.8 mph - N/A   Scattered Clouds
10:16 PM 26.6 °F 20.0 °F 21.2 °F 80% 29.75 in 10.0 mi NE 5.8 mph - N/A   Clear
10:36 PM 26.6 °F 19.1 °F 21.2 °F 80% 29.75 in 10.0 mi NNE 6.9 mph - N/A   Clear
10:56 PM 26.6 °F 19.1 °F 21.2 °F 80% 29.75 in 10.0 mi NNE 6.9 mph - N/A   Clear
11:16 PM 26.6 °F 19.1 °F 21.2 °F 80% 29.75 in 10.0 mi NNE 6.9 mph - N/A   Clear
11:36 PM 26.6 °F 19.1 °F 21.2 °F 80% 29.76 in 10.0 mi NE 6.9 mph - N/A   Clear
11:56 PM 26.6 °F 19.1 °F 21.2 °F 80% 29.76 in 10.0 mi NNE 6.9 mph - N/A   Clear